Date String (YYYY-MM-DD hh:mm:ss) UTC,Instrument flags,Ambient pressure (hPa),Sample flow (lpm),Bypass flow (lpm),Sample temperature (°C),Ambient temperature (°C),ASC tube jacket temperature (°C),LED temperature (°C),Box temperature (°C),Sample RH (%),Span deviation,Mass concentration (μg/m³),Mass concentration (μg/m³),Mass concentration (μg/m³)
DateTimeUTC,F1_M11,P_M11,Q1_M11,Q2_M11,T1_M11,T2_M11,T3_M11,T4_M11,T5_M11,U1_M11,ZSPAN_M11,X0_M11,X2_M11,X1_M11
2022-10-10 01:00:00,,0830.5,5.00,0.00,29.7,28.6,00.0,38.4,31.7,13.4,0000.0,0009.69,0005.21,0004.78
2022-10-10 01:01:00,,0830.6,5.00,0.00,29.7,28.7,00.0,38.4,31.7,13.4,0000.0,0009.63,0005.23,0004.78
2022-10-10 01:02:00,,0830.6,5.00,0.00,29.7,28.7,00.0,38.4,31.7,13.4,0000.0,0009.68,0005.22,0004.76
2022-10-10 01:03:00,,0830.6,5.00,0.00,29.8,28.8,00.0,38.4,31.7,13.4,0000.0,0009.71,0005.29,0004.77
2022-10-10 01:04:00,,0830.6,5.01,0.00,29.8,28.8,00.0,38.4,31.8,13.2,0000.0,0009.64,0005.33,0004.77
2022-10-10 01:05:00,,0830.6,4.99,0.00,29.8,28.8,00.0,38.5,31.8,13.3,0000.0,0009.71,0005.33,0004.78
2022-10-10 01:06:00,,0830.6,5.01,0.00,29.9,28.8,00.0,38.5,31.8,13.4,0000.0,0009.77,0005.33,0004.81
2022-10-10 01:07:00,,0830.6,5.00,0.00,29.9,27.6,00.0,38.5,31.8,13.4,0000.0,0010.02,0005.33,0004.81
2022-10-10 01:08:00,,0830.6,5.00,0.00,29.8,26.4,00.0,38.4,31.6,13.4,0000.0,0009.88,0005.35,0004.82
2022-10-10 01:09:00,,0830.6,5.00,0.00,29.7,26.4,00.0,38.4,31.4,13.5,0000.0,0009.66,0005.36,0004.83
2022-10-10 01:10:00,,0830.6,5.01,0.00,29.6,26.6,00.0,38.4,31.3,13.6,0000.0,0009.70,0005.38,0004.84
2022-10-10 01:11:00,,0830.6,5.00,0.00,29.6,27.0,00.0,38.4,31.3,13.8,0000.0,0009.95,0005.38,0004.86
2022-10-10 01:12:00,,0830.6,5.01,0.00,29.6,27.3,00.0,38.3,31.3,13.8,0000.0,0010.13,0005.37,0004.88
2022-10-10 01:13:00,,0830.6,4.99,0.00,29.5,27.5,00.0,38.3,31.4,14.0,0000.0,0010.43,0005.40,0004.90
2022-10-10 01:14:00,,0830.6,5.02,0.00,29.5,27.7,00.0,38.3,31.4,14.1,0000.0,0010.56,0005.38,0004.90
2022-10-10 01:15:00,,0830.6,4.98,0.00,29.5,27.9,00.0,38.3,31.4,14.1,0000.0,0010.50,0005.37,0004.91
2022-10-10 01:16:00,,0830.6,5.01,0.00,29.6,28.1,00.0,38.3,31.4,14.1,0000.0,0010.41,0005.38,0004.91
2022-10-10 01:17:00,,0830.6,4.99,0.00,29.6,28.2,00.0,38.3,31.5,14.2,-000.1,0010.29,0005.39,0004.92
2022-10-10 01:18:00,,0830.6,5.00,0.00,29.6,28.3,00.0,38.3,31.5,14.2,0000.0,0009.74,0005.40,0004.93
2022-10-10 01:19:00,,0830.6,4.99,0.00,29.6,28.3,00.0,38.3,31.5,14.1,0000.2,0009.77,0005.38,0004.93
2022-10-10 01:20:00,,0830.6,5.02,0.00,29.6,28.4,00.0,38.3,31.5,14.0,0000.0,0009.53,0005.40,0004.94
2022-10-10 01:21:00,,0830.6,4.99,0.00,29.6,28.5,00.0,38.3,31.6,14.0,0001.0,0010.06,0005.40,0004.94
2022-10-10 01:22:00,,0830.7,5.00,0.00,29.7,28.5,00.0,38.4,31.6,14.0,0001.2,0010.03,0005.41,0004.95
2022-10-10 01:23:00,,0830.6,5.01,0.00,29.7,28.5,00.0,38.4,31.6,14.0,0001.4,0010.08,0005.44,0004.95
2022-10-10 01:24:00,,0830.6,4.99,0.00,29.7,28.6,00.0,38.4,31.7,14.0,0001.6,0010.10,0005.45,0004.95
2022-10-10 01:25:00,,0830.6,5.00,0.00,29.7,28.6,00.0,38.4,31.7,14.1,0000.9,0009.92,0005.44,0004.95
2022-10-10 01:26:00,,0830.6,4.99,0.00,29.8,28.6,00.0,38.4,31.7,14.0,0000.2,0010.49,0005.47,0004.99
2022-10-10 01:27:00,,0830.6,5.00,0.00,29.8,28.6,00.0,38.4,31.7,14.1,0000.0,0010.61,0005.48,0005.03
2022-10-10 01:28:00,,0830.6,5.01,0.00,29.8,28.7,00.0,38.5,31.7,14.1,0000.0,0010.70,0005.52,0005.05
2022-10-10 01:29:00,,0830.6,4.99,0.00,29.8,28.7,00.0,38.5,31.7,14.1,0000.0,0010.68,0005.56,0005.09
2022-10-10 01:30:00,,0830.7,5.01,0.00,29.8,28.7,00.0,38.5,31.8,14.0,0000.0,0010.90,0005.59,0005.12
2022-10-10 01:31:00,,0830.7,4.99,0.00,29.9,28.7,00.0,38.5,31.8,14.1,0000.0,0011.02,0005.61,0005.15
2022-10-10 01:32:00,,0830.7,5.01,0.00,29.9,28.7,00.0,38.5,31.8,14.1,0000.0,0010.62,0005.67,0005.20
2022-10-10 01:33:00,,0830.7,4.99,0.00,29.9,28.8,00.0,38.6,31.9,14.0,0000.0,0010.51,0005.74,0005.24
2022-10-10 01:34:00,,0830.7,4.99,0.00,29.9,28.8,00.0,38.6,31.9,14.0,0000.0,0010.35,0005.76,0005.28
2022-10-10 01:35:00,,0830.7,5.01,0.00,29.9,28.8,00.0,38.6,31.9,14.0,0000.0,0010.20,0005.79,0005.30
2022-10-10 01:36:00,,0830.7,5.01,0.00,30.0,28.8,00.0,38.6,31.9,13.9,0000.0,0011.12,0005.88,0005.34
2022-10-10 01:37:00,,0830.7,4.99,0.00,30.0,28.8,00.0,38.6,31.9,13.9,0000.0,0010.90,0005.93,0005.36
2022-10-10 01:38:00,,0830.7,5.00,0.00,30.0,28.8,00.0,38.6,31.9,13.9,0000.0,0010.83,0005.95,0005.36
2022-10-10 01:39:00,,0830.7,4.99,0.00,30.0,27.5,00.0,38.6,31.8,13.8,0000.0,0011.24,0005.93,0005.36
2022-10-10 01:40:00,,0830.7,5.00,0.00,29.9,26.2,00.0,38.6,31.6,13.9,0000.0,0011.49,0005.94,0005.36
2022-10-10 01:41:00,,0830.7,5.00,0.00,29.8,26.2,00.0,38.5,31.4,14.0,0000.0,0011.38,0005.99,0005.38
2022-10-10 01:42:00,,0830.7,5.00,0.00,29.7,26.5,00.0,38.5,31.3,14.1,0000.0,0011.27,0006.00,0005.39
2022-10-10 01:43:00,,0830.7,5.00,0.00,29.7,26.8,00.0,38.5,31.3,14.1,0000.0,0011.22,0006.00,0005.38
2022-10-10 01:44:00,,0830.7,5.00,0.00,29.6,27.2,00.0,38.4,31.3,14.1,0000.0,0011.31,0006.01,0005.37
2022-10-10 01:45:00,,0830.7,4.99,0.00,29.6,27.4,00.0,38.4,31.4,14.1,0000.0,0011.26,0006.00,0005.37
2022-10-10 01:46:00,,0830.7,5.00,0.00,29.6,27.6,00.0,38.4,31.4,14.1,0000.0,0011.21,0005.98,0005.36
2022-10-10 01:47:00,,0830.8,5.01,0.00,29.6,27.8,00.0,38.4,31.4,14.2,0000.0,0010.39,0005.94,0005.34
2022-10-10 01:48:00,,0830.8,4.99,0.00,29.6,27.9,00.0,38.4,31.4,14.1,-000.0,0009.93,0005.87,0005.32
2022-10-10 01:49:00,,0830.8,5.01,0.00,29.6,28.0,00.0,38.4,31.4,14.1,0000.0,0010.04,0005.86,0005.32
2022-10-10 01:50:00,,0830.8,5.00,0.00,29.6,28.1,00.0,38.4,31.5,14.1,0000.2,0009.58,0005.87,0005.31
2022-10-10 01:51:00,,0830.7,4.99,0.00,29.6,28.2,00.0,38.4,31.5,14.1,0000.9,0009.51,0005.88,0005.31
2022-10-10 01:52:00,,0830.8,5.00,0.00,29.6,28.2,00.0,38.4,31.5,14.1,0000.6,0009.54,0005.91,0005.32
2022-10-10 01:53:00,,0830.7,5.00,0.00,29.6,28.3,00.0,38.4,31.5,14.1,0001.0,0009.68,0005.93,0005.31
2022-10-10 01:54:00,,0830.8,5.01,0.00,29.6,28.3,00.0,38.4,31.5,14.1,0001.1,0009.69,0005.92,0005.32
2022-10-10 01:55:00,,0830.7,4.98,0.00,29.7,28.3,00.0,38.4,31.5,14.0,0000.8,0010.45,0005.90,0005.33
2022-10-10 01:56:00,,0830.8,5.01,0.00,29.7,28.4,00.0,38.4,31.6,14.0,0000.4,0010.94,0005.90,0005.33
2022-10-10 01:57:00,,0830.7,4.99,0.00,29.7,28.4,00.0,38.4,31.6,14.0,0000.3,0011.46,0005.92,0005.34
2022-10-10 01:58:00,,0830.8,5.01,0.00,29.7,28.4,00.0,38.4,31.6,13.9,0000.5,0011.43,0005.92,0005.34
2022-10-10 01:59:00,,0830.8,4.99,0.00,29.7,28.5,00.0,38.4,31.6,14.0,0000.4,0011.43,0005.93,0005.35
